Location: McFarlands Corners
(41.4117°N, 81.3382°W)
Time: 01:18:39
(UTC+00:00)

Transit 4A - Pass Details

Date: 18 November 2024
Orbit: 862 x 980 km, 66.8° (Epoch: 08 December)

Event Time Altitude Azimuth Distance (km) Brightness Sun altitude
Rises 00:09:45 0° 338° (NNW) 3,656 11.2 -23.5°
Reaches altitude 10° 00:14:14 10° 7° (N) 2,725 10.2 -24.4°
Enters shadow 00:15:05 11° 15° (NNE) 2,630 10.1 -24.5°
